Location: Unspecified
(0.0000°N, 0.0000°E)
Time: 04:03:27
(UTC+02:00)

Atlas Centaur 2 - Visible Passes

Search period start: 30 July 2016 00:00
Search period end: 09 August 2016 00:00
Orbit: 459 x 1315 km, 30.4° (Epoch: 29 July)

Date Brightness Start Highest point End Pass type
(mag) Time Alt. Az. Time Alt. Az. Time Alt. Az.
06 Aug 3.4 21:41:02 10° N 21:42:42 15° NNE 21:42:42 15° NNE visible
07 Aug 2.9 21:37:20 10° NNW 21:40:08 23° NNE 21:40:08 23° NNE visible
08 Aug 2.1 21:33:57 10° NW 21:37:37 36° NNE 21:37:37 36° NNE visible
